User: anonymous   Login
Location: Unspecified
(0.0000°N, 0.0000°E)
Time: 09:24:36
(UTC+00:00)
Language:

MICROSCOPE - Orbit

View from above orbital plane
View from above orbital plane
View from above satellite
View from above satellite

Ground track
Ground track

The orbit data is extracted from the following two-line orbital elements,

1 41457U 16025B   22343.48190371  .00000795  00000-0  19593-3 0  9993
2 41457  98.2539 346.4101 0001058 123.2344 236.8955 14.54807581351472
Epoch (UTC): 09 December 2022 11:33:56
Eccentricity: 0.0001058
inclination: 98.2539°
perigee height: 709 km
apogee height: 711 km
right ascension of ascending node: 346.4101°
argument of perigee: 123.2344°
revolutions per day: 14.54807581
mean anomaly at epoch: 236.8955°
orbit number at epoch: 35147

The dashed part of the orbit path shows where the satellite is in the earth's shadow,  

DLR